Tracking 30107 objects as of 18-Jan-2025
HD Live streaming from Space Station
objects crossing your sky now

STARLINK-5435

Track STARLINK-5435 now!
10-day predictions
STARLINK-5435 is classified as:


NORAD ID: 54797
Int'l Code: 2022-175AR
Perigee: 545.8 km
Apogee: 548.0 km
Inclination: 53.2 °
Period: 95.4 minutes
Semi major axis: 6917 km
RCS: Unknown
Launch date: December 17, 2022
Source: United States (US)
Launch site: AIR FORCE EASTERN TEST RANGE (AFETR)
Your satellite tracking list
Your tracking list is empty




NASA's NSSDC Master Catalog

Two Line Element Set (TLE):
1 54797U 22175AR  25017.98326931  .00003110  00000-0  21337-3 0  9999
2 54797  53.2184 110.1404 0001565 113.3547 246.7610 15.08840954115006
Source of the keplerian elements: AFSPC